HST,Max TemperatureF,Mean TemperatureF,Min TemperatureF,Max Dew PointF,MeanDew PointF,Min DewpointF,Max Humidity, Mean Humidity, Min Humidity, Max Sea Level PressureIn, Mean Sea Level PressureIn, Min Sea Level PressureIn, Max VisibilityMiles, Mean VisibilityMiles, Min VisibilityMiles, Max Wind SpeedMPH, Mean Wind SpeedMPH, Max Gust SpeedMPH,PrecipitationIn, CloudCover, Events, WindDirDegrees
2013-7-1,84,80,75,67,64,59,66,58,51,29.99,29.96,29.93,10,10,10,14,10,24,0.00,4,,151
2013-7-2,84,78,73,69,65,59,72,61,56,29.98,29.93,29.90,10,10,10,13,8,,0.00,3,,205
2013-7-3,82,78,75,70,67,61,76,64,52,29.99,29.96,29.91,10,10,10,14,8,,0.00,4,,212
2013-7-4,84,80,75,70,68,66,74,68,58,30.02,29.98,29.95,10,10,10,13,5,,0.00,4,,231
2013-7-5,84,80,75,70,68,66,78,68,60,30.03,29.99,29.95,10,10,10,12,8,,0.00,4,,198
2013-7-6,84,81,77,72,70,65,79,71,63,30.02,29.99,29.96,10,10,10,12,6,,0.00,6,,250
2013-7-7,82,78,73,72,70,67,83,73,65,29.98,29.94,29.89,10,10,10,12,5,,0.06,6,Rain,178
2013-7-8,84,78,73,72,69,68,88,73,61,30.01,29.95,29.90,10,10,10,14,5,,0.00,4,,191
2013-7-9,86,80,75,71,70,69,85,72,59,30.09,30.02,29.97,10,10,10,12,8,,0.03,3,Rain,167
2013-7-10,87,81,75,70,67,59,78,65,41,30.09,30.06,30.02,10,10,10,30,7,38,0.00,4,,107
2013-7-11,84,80,75,70,68,64,83,66,56,30.05,30.02,29.98,10,10,10,10,6,,0.00,6,Rain,199
2013-7-12,84,78,73,70,67,62,79,66,54,30.02,29.99,29.95,10,10,10,13,5,,0.00,3,,208
2013-7-13,84,78,73,68,66,59,71,63,55,29.98,29.95,29.91,10,10,10,14,8,,0.00,2,,159
2013-7-14,84,80,75,68,64,55,69,58,47,29.98,29.94,29.90,10,10,10,12,8,17,0.00,4,,199
2013-7-15,84,80,75,69,67,63,74,63,55,30.00,29.96,29.92,10,10,10,14,9,,0.00,6,,266
2013-7-16,84,80,75,70,67,61,74,64,53,29.98,29.95,29.91,10,10,10,14,8,,0.00,5,,172
2013-7-17,86,80,75,70,67,62,78,65,55,29.99,29.94,29.91,10,10,10,14,7,,0.00,4,,152
2013-7-18,86,80,75,70,67,62,74,64,55,30.04,29.97,29.94,10,10,10,13,6,,0.00,2,,173
2013-7-19,84,80,75,71,68,64,77,67,59,30.05,30.01,29.97,10,10,10,14,6,,0.00,3,,230
2013-7-20,84,80,75,69,66,61,73,64,54,30.04,30.00,29.96,10,10,9,13,6,,0.00,3,,150
2013-7-21,84,78,72,71,67,62,74,67,58,29.99,29.96,29.92,10,10,10,13,6,,0.00,3,,178
2013-7-22,84,80,77,72,69,65,76,68,62,30.00,29.97,29.93,10,10,10,12,5,,0.00,4,,233
2013-7-23,86,82,77,73,71,70,84,72,61,30.00,29.97,29.94,10,10,10,14,7,,0.00,5,,237
2013-7-24,86,82,77,75,71,69,89,75,61,29.98,29.94,29.88,10,10,10,15,8,,0.03,6,Rain,221
2013-7-25,86,80,75,70,66,60,74,60,52,29.97,29.92,29.88,10,10,10,14,8,,0.00,3,,142
2013-7-26,86,80,75,69,65,60,69,59,50,30.02,29.96,29.92,10,10,10,13,6,,0.00,5,,240
2013-7-27,86,80,75,69,66,61,71,61,51,30.00,29.97,29.93,10,10,10,18,8,25,0.00,4,,171
2013-7-28,88,82,75,68,65,60,67,57,46,29.99,29.93,29.88,10,10,10,12,6,,0.00,2,,181
2013-7-29,82,78,75,75,71,64,94,78,64,29.97,29.87,29.83,10,9,4,31,11,41,0.15,6,Rain,144
2013-7-30,88,82,77,74,72,67,84,72,56,30.06,30.00,29.92,10,10,10,22,13,25,0.00,4,,194
2013-7-31,87,82,78,73,71,65,83,70,54,30.05,30.02,29.96,10,10,10,15,7,,0.00,6,,158